Location: Castle Hill Houses
(40.8186°N, 73.8497°W)
Time: 09:53:06
(UTC+00:00)

Cosmos 2263 Rocket - Pass Details

Date: 26 January 2020
Orbit: 823 x 849 km, 71.0° (Epoch: 16 February)

Event Time Altitude Azimuth Distance (km) Brightness Sun altitude
Exits shadow 09:18:31 31° 24° (NNE) 1,430 3.5 -32.7°
Maximum altitude 09:20:07 38° 59° (ENE) 1,276 3.4 -32.4°
Drops below altitude 10° 09:25:20 10° 126° (SE) 2,464 5.2 -31.4°
Sets 09:27:58 0° 135° (SE) 3,398 5.9 -30.9°
